Location: Huberhof
(49.2050°N, 7.4980°E)
Time: 05:30:14
(UTC+00:00)

Cosmos 1689 Rocket - Pass Details

Date: 29 October 2020
Orbit: 360 x 375 km, 97.5° (Epoch: 25 November)

Event Time Altitude Azimuth Distance (km) Brightness Sun altitude
Exits shadow 16:49:01 - 39° (NE) 1,814 5.0 -6.4°
Reaches altitude 10° 16:50:34 10° 59° (ENE) 1,355 4.2 -6.7°
Maximum altitude 16:52:09 14° 92° (E) 1,151 3.9 -6.9°
Drops below altitude 10° 16:53:44 10° 126° (SE) 1,346 4.4 -7.2°
Sets 16:56:20 0° 154° (SSE) 2,186 5.7 -7.6°
